Location: Noordwijk
(52.2400°N, 4.4500°E)
Time: 03:38:30
(UTC+00:00)

PCSat - Pass Details

Date: 08 December 2022
Orbit: 785 x 793 km, 67.0° (Epoch: 28 January)

Event Time Altitude Azimuth Distance (km) Brightness Sun altitude
Rises 19:14:42 0° 235° (SW) 3,275 13.4 -33.1°
Reaches altitude 10° 19:17:11 10° 241° (WSW) 2,351 12.6 -33.4°
Enters shadow 19:21:01 40° 272° (W) 1,148 10.7 -34.0°
